CAPE
942 1353 1225 1224 1458 1358 1273 1112 1170 1275 1141 1024 1282 1482 1487 1508 1446 1456 1522 1559 1388 1299 1287 1213 1142 1107 929 673 546 789 904 901 847 558 473 474 643 622 355 207 99 135 63
1242 1541 1548 1493 1594 1296 1138 1144 963 993 1384 1434 1269 1243 1500 1733 1789 1611 1518 1424 1284 1041 1083 1134 1183 1068 890 963 872 887 909 885 685 481 571 678 578 368 301 199 229 309 306
1297 1700 1672 1528 1675 1527 1219 1129 1187 1088 1188 1620 1610 1559 1633 1901 1899 1866 1833 1636 1452 1322 1171 1251 1251 1419 1086 963 1055 1095 1106 856 685 882 894 484 488 415 425 279 276 240 246
1354 1685 1622 1586 1809 1622 1415 1233 1226 1318 1334 1425 1568 1803 2025 1972 2065 2073 1938 1705 1645 1444 1439 1371 1215 1536 994 1036 1161 1157 1141 976 943 937 304 372 648 561 256 159 265 440 230
1376 1633 1600 1774 1959 1879 1642 1413 1412 1529 1501 1556 1450 1522 1795 2009 2076 1909 1770 1553 1339 1299 1249 1412 1348 961 1268 830 1324 1206 1137 1051 971 328 415 555 643 635 235 240 193 345 313
1506 1760 1958 2078 2098 2165 2091 1873 1704 1640 1542 1592 1710 1663 1600 2065 2166 2107 1936 1778 1662 1298 1186 1234 1217 898 825 1000 1160 1307 1252 1150 620 244 452 693 594 522 224 259 145 342 267
1531 1800 2419 2348 2325 2394 2341 2226 2071 1746 1701 1722 1779 1792 1740 1835 2209 1985 1379 1865 1682 1448 1458 1300 1008 1174 624 1124 1005 1435 1269 969 364 298 399 329 593 672 648 316 103 207 484
1480 1975 2324 2344 2292 2484 2493 2321 2309 1842 1887 1914 1930 1839 1896 2006 1918 1381 1591 1653 1817 1742 1525 1491 1163 1505 1254 1140 881 1143 677 695 580 352 386 356 558 798 722 777 511 261 504
1732 1791 2059 2299 2347 2504 2581 2567 2442 2109 2018 2084 2111 2086 2067 2224 1845 1643 1999 1674 1885 1522 1470 1480 1269 1436 992 859 900 731 334 615 541 343 403 255 403 973 909 902 657 282 603
1812 1823 1915 2102 2218 2531 2810 2716 2572 2304 2089 2142 2296 2373 2398 2309 1992 2051 2000 1560 1587 1510 1319 1292 1150 1277 680 657 1068 646 388 646 424 399 356 175 197 1178 1144 946 763 313 109
1670 1722 1719 1938 2198 2337 2520 2599 2661 2511 2351 2336 2478 2519 2478 2225 1871 2244 1770 1418 1457 1643 1540 1364 1183 1152 792 437 714 603 733 436 342 353 446 327 180 1128 1192 1097 697 515 237
966 1386 1491 1575 1888 1996 2327 2421 2518 2478 2540 2432 2505 2454 2331 1963 1540 1896 2058 1616 1788 1833 1650 1348 1187 1281 1009 536 515 909 572 192 128 184 382 483 244 946 1270 1084 691 374 758
1207 1098 1358 1497 1731 1844 2027 2304 2146 2351 2473 2426 2395 2181 2142 1458 1293 2050 1743 1823 1689 1969 1562 1587 1247 941 695 578 529 527 390 178 67 53 200 528 323 831 1449 1151 1017 668 311
1631 1394 1405 1667 1725 1689 1820 1533 1548 1508 2178 1877 1698 1623 1829 1079 1230 1236 1421 1365 1302 1425 1184 1165 1002 773 758 681 583 481 415 219 7 299 399 679 290 318 867 1223 1119 1025 859
1934 1895 1831 1826 1643 1556 1310 1130 1168 1006 1354 1463 1430 1264 1394 1057 930 1159 1199 1227 1205 1165 1173 779 767 617 538 546 529 441 283 173 67 366 379 597 394 269 302 1226 1284 1075 978
2163 2069 2068 1986 1872 1755 1815 1608 1251 783 950 1000 866 908 1105 858 724 496 486 760 898 1069 1061 829 649 574 454 462 407 387 387 241 162 312 247 308 528 273 288 752 1303 1108 991
2078 2167 2179 1963 1837 1799 1689 1499 1282 961 885 882 900 913 808 702 564 352 63 9 284 789 1021 982 921 809 655 491 429 418 337 383 357 382 242 234 462 197 178 270 770 1132 1048
1816 1856 1954 1943 1824 1668 1336 1245 964 650 529 760 910 776 765 533 338 168 121 66 132 529 873 723 716 561 588 495 505 517 505 431 420 415 288 185 148 147 181 359 317 1078 1065
1049 1685 1746 1959 1863 1587 1231 859 740 479 211 0 148 430 342 328 211 149 118 35 324 371 566 567 457 448 378 436 406 442 438 416 409 373 336 188 194 167 172 136 145 652 967
552 981 1807 1963 1816 1634 1412 1192 965 882 744 682 573 495 243 98 7 0 223 258 291 326 358 283 328 380 343 311 330 424 462 409 348 323 342 426 366 343 244 240 256 263 547
125 439 1114 1690 1650 1651 1406 1100 966 833 751 523 479 507 519 406 234 164 268 284 236 264 240 257 143 133 254 267 269 176 287 294 309 335 312 346 512 478 375 263 119 83 74
17 116 832 1101 1434 1391 1210 1117 932 770 557 402 240 184 252 249 344 303 247 223 244 179 239 305 209 92 126 255 188 93 96 132 152 215 171 235 306 473 504 398 179 51 2
9 115 17 667 1364 1574 1408 961 635 492 324 223 135 60 69 133 133 103 197 186 206 152 49 239 317 126 48 148 177 119 59 10 50 39 152 160 306 334 382 469 394 257 100
1 29 8 772 1375 1410 987 800 599 315 134 64 13 20 30 2 11 60 66 92 107 139 82 82 300 247 92 59 150 120 72 48 17 16 15 111 262 286 319 296 288 270 199
0 76 332 1042 1088 916 698 480 167 33 0 0 0 0 0 0 16 44 42 49 61 64 85 61 217 275 148 65 125 139 134 80 26 6 0 2 49 76 143 215 236 216 204
0 23 1077 1206 1018 778 414 126 0 0 0 0 0 0 2 0 17 29 22 47 70 80 82 45 154 218 202 153 83 80 101 89 64 30 10 2 0 3 58 130 152 168 244
CIN
-52 -26 -16 -25 -20 -29 -48 -70 -70 -64 -63 -65 -48 -28 -16 -11 -10 -7 -1 -0 -0 -0 -0 -0 -2 -3 -8 -10 -8 -4 -2 -1 -0 -0 -0 -0 -0 -0 -2 -10 -4 -1 -11
-83 -33 -33 -31 -24 -45 -70 -78 -86 -81 -54 -43 -46 -44 -20 -8 -0 -1 -1 -0 -0 -0 -0 -0 -0 -5 -10 -5 -2 -0 -0 -0 -0 -0 -0 -0 -0 -1 -3 -0 -2 -7 -3
-85 -36 -35 -55 -44 -49 -66 -70 -71 -77 -69 -32 -30 -31 -22 -4 -2 -0 -0 -0 -0 -0 -0 -0 -0 -0 -2 -4 -1 -0 -0 -0 -0 -0 -0 -3 -0 -0 -0 -2 -0 -1 -0
-107 -58 -60 -66 -52 -58 -60 -65 -70 -64 -51 -39 -25 -9 -0 -0 -0 -0 -0 -0 -0 -0 -0 -0 -0 -0 -0 -1 -0 -0 -0 -0 -0 -0 -13 -6 -0 -0 -0 -1 -1 -0 -0
-98 -77 -72 -56 -42 -42 -51 -61 -59 -46 -41 -36 -38 -27 -5 -0 -0 -1 -0 -3 -8 -8 -0 -0 -0 -7 -0 -2 -0 -0 -0 -0 -0 -11 -12 -4 -2 -0 -0 -0 -0 -0 -0
-95 -68 -46 -33 -34 -26 -31 -38 -43 -42 -49 -42 -32 -23 -19 -0 -0 -0 -0 -0 -0 -6 -9 -0 -0 -4 -4 -1 -2 -0 -0 -0 -1 -19 -7 -3 -5 -0 -3 -0 -0 -0 -0
-91 -54 -0 -19 -25 -24 -21 -28 -30 -41 -45 -38 -30 -20 -16 -3 -0 -0 -2 -0 -0 -0 -1 -2 -8 -3 -5 -0 -5 -0 -0 -0 -18 -22 -18 -20 -8 -0 -0 -0 -6 -0 -0
-109 -56 -14 -18 -32 -22 -19 -28 -18 -42 -36 -30 -22 -22 -11 -4 -5 -29 -6 -1 -0 -0 -0 -0 -4 -0 -1 -1 -4 -3 -12 -6 -7 -19 -24 -20 -9 -0 -0 -0 -0 -1 -0
-66 -77 -52 -23 -23 -22 -23 -16 -18 -35 -32 -20 -13 -12 -9 -0 -6 -12 -0 -2 -0 -3 -2 -0 -1 -1 -5 -3 -4 -9 -31 -10 -17 -29 -21 -18 -8 -0 -0 -0 -0 -4 -0
-73 -76 -70 -44 -45 -38 -11 -14 -20 -37 -43 -21 -6 -1 -0 -0 -3 -0 -1 -12 -4 -4 -10 -9 -4 -5 -7 -6 -3 -9 -16 -11 -30 -28 -20 -31 -22 -0 -0 -0 -0 -12 -21
-79 -80 -68 -54 -43 -32 -23 -29 -21 -28 -25 -10 -0 -0 -0 -1 -5 -0 -11 -32 -22 -5 -7 -15 -6 -5 -12 -12 -5 -14 -5 -27 -42 -39 -26 -28 -44 -0 -0 -0 -3 -5 -18
-102 -93 -84 -70 -65 -51 -26 -35 -32 -24 -7 -4 -1 -1 -2 -5 -11 -2 -1 -10 -2 -0 -6 -16 -12 -5 -8 -19 -11 -2 -16 -41 -69 -74 -43 -23 -40 -3 -0 -0 -8 -22 -0
-92 -99 -96 -80 -53 -42 -38 -37 -47 -32 -14 -9 -4 -15 -10 -57 -51 -1 -7 -3 -9 -0 -10 -15 -18 -20 -20 -20 -14 -16 -29 -50 -91 -103 -57 -26 -36 -8 -0 -0 -0 -5 -27
-83 -91 -90 -71 -57 -51 -45 -68 -77 -82 -37 -48 -49 -38 -17 -73 -53 -46 -34 -44 -39 -25 -27 -26 -40 -44 -31 -21 -15 -17 -25 -50 -113 -53 -50 -34 -33 -26 -2 -0 -0 -0 -0
-66 -69 -71 -66 -67 -67 -74 -89 -88 -108 -80 -61 -53 -63 -50 -75 -75 -52 -44 -47 -44 -34 -35 -43 -53 -59 -59 -43 -25 -24 -37 -55 -103 -48 -54 -34 -40 -37 -32 -0 -0 -0 -0
-69 -53 -57 -62 -59 -67 -44 -45 -71 -114 -95 -74 -79 -77 -59 -59 -65 -80 -73 -51 -52 -46 -35 -44 -46 -66 -71 -53 -36 -34 -31 -47 -70 -46 -64 -69 -37 -52 -46 -8 -0 -0 -0
-104 -62 -60 -74 -66 -59 -55 -58 -73 -91 -80 -64 -64 -57 -68 -76 -69 -70 -88 -7 -79 -48 -29 -34 -32 -38 -45 -57 -40 -43 -36 -28 -29 -31 -57 -61 -36 -57 -54 -35 -6 -1 -0
-84 -95 -70 -61 -87 -66 -79 -77 -88 -109 -122 -81 -58 -61 -62 -72 -74 -74 -77 -95 -70 -50 -29 -39 -44 -47 -39 -43 -45 -44 -38 -31 -56 -38 -55 -75 -85 -72 -57 -31 -24 -3 -3
-156 -69 -81 -65 -74 -76 -82 -93 -97 -107 -147 -0 -129 -85 -93 -89 -95 -93 -74 -43 -47 -45 -29 -34 -49 -56 -48 -39 -37 -49 -47 -51 -49 -55 -55 -76 -74 -78 -75 -52 -42 -6 -6
-195 -157 -57 -73 -72 -82 -76 -63 -57 -59 -67 -67 -72 -74 -93 -115 -37 -0 -62 -53 -44 -36 -31 -38 -41 -53 -48 -50 -18 -28 -40 -38 -48 -50 -41 -47 -60 -63 -58 -52 -35 -21 -11
-203 -189 -79 -74 -82 -65 -66 -54 -49 -50 -51 -54 -57 -54 -52 -57 -82 -101 -58 -48 -42 -36 -39 -35 -36 -50 -42 -54 -55 -60 -48 -50 -40 -64 -59 -40 -33 -49 -56 -63 -69 -63 -66
-207 -280 -87 -57 -68 -69 -53 -45 -51 -41 -50 -64 -76 -81 -70 -59 -52 -56 -61 -48 -41 -45 -36 -21 -24 -42 -54 -58 -31 -68 -32 -51 -71 -72 -87 -78 -50 -39 -43 -49 -67 -91 -42
-212 -155 -90 -94 -34 -52 -44 -70 -81 -73 -83 -72 -78 -114 -97 -64 -68 -79 -50 -41 -41 -40 -47 -30 -20 -38 -50 -54 -53 -50 -38 -77 -100 -123 -84 -83 -55 -67 -62 -42 -34 -47 -63
-28 -165 -188 -109 -44 -56 -74 -39 -31 -37 -32 -79 -89 -88 -80 -63 -71 -67 -69 -51 -40 -44 -44 -46 -24 -23 -40 -33 -58 -69 -76 -95 -74 -84 -144 -93 -70 -79 -76 -75 -56 -47 -39
-0 -213 -101 -69 -92 -111 -77 -72 -102 -97 -0 -0 -0 -0 -0 -0 -98 -72 -61 -47 -50 -39 -32 -37 -21 -20 -32 -41 -30 -52 -52 -72 -104 -99 -0 -92 -152 -130 -130 -128 -100 -72 -53
-0 -58 -83 -77 -82 -101 -116 -160 -0 -0 -0 -0 -0 -0 -17 -0 -73 -73 -58 -57 -56 -39 -34 -36 -23 -18 -26 -36 -44 -48 -38 -40 -60 -70 -84 -56 -0 -75 -161 -162 -112 -108 -81
Wind_Speed
24 23 21 20 18 19 19 19 18 16 18 18 18 19 19 19 19 18 17 16 15 12 11 8 9 9 12 16 20 20 21 23 24 26 28 29 29 29 29 28 28 28 28
24 23 24 22 20 20 19 19 18 18 18 18 19 19 19 20 20 19 16 15 14 11 10 8 8 9 11 15 16 17 20 21 24 25 27 28 28 28 28 28 28 28 28
24 24 25 24 22 18 18 17 17 17 17 17 18 18 18 19 19 18 16 15 13 11 9 8 7 8 10 12 13 16 18 21 24 24 25 27 26 26 27 28 28 27 27
24 24 24 23 20 18 18 16 15 15 15 15 14 15 15 15 15 15 16 15 13 11 9 7 7 8 9 11 13 16 18 20 23 23 24 25 25 26 26 27 28 27 27
22 23 22 23 20 19 17 16 15 14 13 13 12 12 12 13 13 13 14 12 13 11 9 7 7 8 7 8 13 14 16 18 19 21 22 22 24 24 25 26 27 26 26
20 22 23 21 19 20 18 16 14 13 13 12 12 10 9 10 10 10 11 9 10 10 9 8 7 8 7 6 10 12 12 15 16 17 19 21 22 23 24 25 25 25 26
19 19 22 20 20 19 16 15 14 13 12 11 11 11 10 9 9 8 8 9 8 9 9 8 8 7 7 5 7 8 11 13 13 15 17 19 20 22 22 23 24 24 25
18 18 21 21 19 17 16 16 15 14 14 13 11 10 10 9 7 7 7 8 9 9 9 8 8 9 8 6 3 6 9 12 7 10 16 18 19 20 19 20 21 22 23
18 20 20 17 15 15 14 14 14 14 14 13 12 12 11 9 7 6 7 7 8 9 9 11 8 7 12 7 5 2 5 5 6 8 13 15 17 19 18 17 17 18 20
17 17 16 13 11 9 10 12 12 12 11 11 13 12 10 9 7 6 7 8 8 8 8 10 12 8 10 13 6 5 1 3 5 7 10 12 15 17 17 16 14 15 16
14 16 14 10 6 5 6 8 8 8 8 8 10 11 11 7 5 6 8 9 9 9 8 9 12 12 9 14 13 6 3 4 4 5 7 12 14 14 14 15 13 13 13
15 16 14 12 8 5 4 3 3 2 2 3 5 7 6 5 7 12 10 11 11 11 9 9 11 15 12 12 14 11 7 5 4 5 4 10 13 14 13 13 13 13 13
15 13 13 11 9 7 6 3 0 1 0 0 1 2 2 3 4 11 12 11 13 14 12 11 12 15 14 12 12 14 11 7 7 6 4 8 8 12 12 11 12 13 14
16 16 16 15 13 13 9 3 1 2 1 1 2 2 4 6 12 14 16 12 12 11 15 15 13 14 16 15 15 11 11 9 7 13 5 4 8 9 9 10 10 12 10
14 16 16 17 17 16 13 8 4 1 1 3 4 6 6 6 8 8 12 14 11 7 10 19 17 15 17 18 15 11 11 10 9 6 1 5 7 9 8 7 7 8 9
14 16 16 17 18 17 17 15 11 7 4 1 2 3 5 5 10 12 15 15 12 8 11 20 18 17 17 20 19 11 13 10 10 8 7 3 7 7 5 5 6 7 8
13 15 18 17 17 16 16 15 14 12 8 6 3 2 5 7 9 10 19 19 18 14 14 20 18 18 19 18 21 21 16 8 8 7 7 4 3 4 4 5 6 6 6
20 16 19 18 16 16 15 16 14 13 9 7 5 3 2 4 9 12 19 20 18 17 16 17 15 17 19 18 19 19 21 16 11 5 4 5 4 5 2 6 8 7 6
24 23 17 18 13 11 12 15 11 9 7 6 5 2 4 9 11 13 15 19 19 17 18 18 18 17 17 20 18 22 22 19 13 11 6 2 3 3 5 9 10 9 7
29 29 22 16 13 9 10 8 6 3 2 4 2 4 8 13 15 16 16 18 18 19 19 18 20 17 15 19 21 23 21 21 17 12 12 9 1 4 3 5 4 6 6
29 31 29 19 14 9 6 7 4 1 5 8 9 10 11 12 13 16 18 19 19 18 20 18 20 15 10 19 20 23 21 22 21 16 14 15 13 5 3 2 3 4 3
20 30 26 23 16 12 7 4 3 7 9 13 14 14 12 15 14 10 14 18 20 22 22 22 19 20 19 16 21 21 24 23 22 21 20 18 13 10 6 4 3 3 4
17 24 27 22 15 9 6 7 8 12 14 17 12 8 7 12 16 15 10 11 18 21 22 23 19 18 16 15 18 19 21 25 20 19 20 20 17 13 10 11 8 7 6
12 8 23 19 13 9 8 6 7 11 9 11 1 7 10 5 15 19 13 13 18 22 23 23 22 19 20 17 18 23 21 17 20 20 19 18 17 17 14 14 15 9 9
13 16 16 14 11 10 11 13 12 11 8 9 11 4 7 9 5 7 12 15 17 26 27 24 22 21 20 18 15 19 21 19 18 19 19 21 22 20 16 14 18 14 8
12 12 12 13 10 14 14 14 15 14 12 5 5 6 17 9 5 3 2 9 11 23 24 22 22 22 18 13 14 17 21 22 23 23 25 27 30 28 20 17 17 14 11
Wind_Direction
128 122 114 110 104 100 96 91 86 79 82 79 80 82 81 85 84 83 81 78 78 71 60 32 35 26 44 62 85 82 81 87 86 90 100 104 104 104 101 97 96 94 91
124 123 121 115 111 107 101 96 91 86 86 85 86 85 87 88 89 85 78 77 74 63 50 28 12 29 38 65 70 76 83 85 89 89 97 100 97 99 100 100 104 97 97
126 126 126 122 116 108 102 96 93 90 88 88 88 87 86 87 90 85 78 74 72 60 45 25 1 14 40 54 68 81 85 89 93 93 93 105 100 95 101 106 106 102 100
126 128 128 126 118 112 107 100 94 88 86 83 80 80 81 78 76 74 76 72 63 56 42 22 0 9 32 55 73 86 89 92 96 92 94 102 107 99 103 112 109 108 103
124 129 129 128 121 118 112 106 99 92 87 81 74 69 72 74 69 66 66 58 65 52 34 16 359 357 15 43 80 86 88 89 91 93 92 87 98 100 103 108 116 116 111
122 129 132 130 125 124 118 111 104 97 89 79 74 64 56 64 60 54 51 33 44 48 38 17 355 321 6 24 78 89 85 87 84 85 83 91 95 101 104 106 109 118 115
120 125 134 133 132 128 121 115 110 104 89 81 74 72 64 60 57 45 26 19 354 15 34 34 332 328 317 356 71 84 87 93 81 87 89 98 100 101 101 104 106 115 116
119 124 132 136 134 130 125 122 117 113 107 98 83 75 73 63 48 40 29 17 3 349 353 354 347 305 299 315 342 79 93 95 49 72 106 101 105 102 100 97 101 109 114
121 127 133 132 130 128 125 124 123 121 118 112 102 96 91 73 37 4 353 0 4 1 338 308 334 334 274 301 307 37 90 66 27 43 91 98 108 109 102 94 94 97 106
116 122 126 129 127 125 123 127 127 126 122 119 119 110 98 85 45 10 345 337 348 4 7 328 304 329 290 270 296 284 31 356 18 43 91 102 113 112 109 102 90 91 98
111 127 129 124 115 117 123 127 128 126 124 124 123 120 116 76 15 340 327 320 326 340 351 340 302 302 312 274 273 280 282 308 342 7 81 115 119 118 111 111 101 97 96
121 132 134 136 135 133 131 129 126 107 99 110 106 113 97 69 316 292 318 318 322 322 332 331 315 281 293 292 276 272 271 291 320 340 30 121 128 129 121 114 113 112 110
126 123 132 134 141 145 147 145 179 293 219 91 125 99 72 353 90 300 306 327 319 310 313 312 304 289 288 291 294 275 270 277 296 322 61 127 128 131 130 119 120 125 125
133 137 142 144 141 151 151 149 160 178 287 265 291 297 309 307 286 287 288 316 330 329 297 290 294 290 283 283 284 288 276 279 290 293 344 120 140 139 134 129 126 132 126
135 145 151 149 149 151 151 143 138 158 292 292 287 292 291 288 292 292 296 305 328 357 313 276 283 286 279 275 280 290 284 283 285 306 14 130 147 148 140 135 135 138 138
141 153 148 152 152 147 157 157 152 142 144 305 248 263 280 277 291 287 294 300 314 334 310 276 280 282 282 275 275 293 284 290 285 289 300 317 155 154 144 146 152 153 152
137 150 158 147 148 147 151 152 150 152 136 142 152 277 282 278 285 288 288 291 295 305 298 280 282 284 279 279 272 274 279 297 294 295 293 292 295 169 168 173 171 168 168
184 156 166 161 143 152 158 163 152 157 149 152 158 177 259 278 290 293 288 287 288 291 289 282 288 285 279 281 279 282 275 288 297 296 285 284 283 297 261 179 181 180 186
261 195 161 166 145 134 146 168 147 149 153 162 179 233 266 297 296 292 289 285 286 283 281 279 282 285 282 275 277 271 269 278 296 298 305 229 270 266 179 181 183 189 193
261 253 181 163 155 132 135 137 135 80 60 347 288 272 296 295 292 287 286 281 281 280 277 278 277 281 286 272 270 269 270 276 289 297 303 310 127 168 176 177 185 189 215
203 238 208 169 159 138 109 142 140 149 358 341 328 315 305 297 289 287 281 278 276 278 275 273 274 279 284 270 269 268 273 277 283 293 304 300 301 321 326 298 189 214 229
207 229 216 184 159 152 128 71 41 5 351 340 333 321 312 306 305 279 275 272 271 272 272 269 270 273 277 273 266 272 271 276 281 284 286 292 307 318 317 307 280 247 242
138 196 199 196 170 137 80 34 22 2 353 343 345 341 333 315 305 298 279 263 270 269 270 267 266 269 272 272 269 273 272 267 280 287 287 287 299 313 318 315 309 299 287
128 151 183 186 150 92 57 62 33 11 359 358 354 205 206 334 312 297 290 278 274 266 267 266 264 266 269 270 271 265 274 283 278 285 288 297 300 310 317 315 309 306 302
116 128 167 147 109 70 49 30 36 32 29 219 220 174 189 196 344 318 300 285 276 259 260 265 263 262 266 270 272 269 266 274 281 286 290 290 295 306 320 320 311 314 310
80 99 106 108 66 38 38 47 46 45 57 145 121 110 243 199 125 120 351 287 280 260 262 267 264 260 265 268 274 269 263 269 272 281 283 286 283 287 318 325 316 317 314